Wind_Speed
3 1 5 8 8 8 13 19 17 8 5 7 15 20 16 14 15 17 20 24 29 33 33 37 36 33 30 28 29 28 29 29 27 26 25 22 22 20 19 17 16 16 13 15
3 7 13 9 4 7 9 13 23 18 8 3 12 13 10 16 21 21 24 25 29 26 29 36 37 36 34 30 28 30 30 29 27 26 24 23 22 20 21 19 18 18 17 17
6 10 1 7 11 12 13 13 8 15 7 8 6 11 14 14 20 21 24 27 27 32 33 37 39 39 36 33 31 31 30 29 29 27 25 26 25 24 23 21 20 20 19 15
9 7 9 12 13 8 14 8 15 14 12 18 11 12 9 18 23 10 21 26 31 32 33 36 39 40 39 36 32 33 32 31 31 30 29 28 28 29 27 24 22 18 15 12
9 4 5 10 13 11 8 10 10 13 11 6 9 6 6 7 16 23 16 27 27 31 35 39 42 39 39 35 34 33 33 32 31 32 32 32 32 32 28 25 21 18 13 7
17 14 6 8 6 7 6 9 9 11 7 7 14 11 7 12 19 20 24 26 36 37 32 36 41 37 37 35 34 34 35 35 35 36 36 37 36 35 30 25 19 11 11 7
5 4 3 4 2 7 8 6 4 6 6 5 6 14 16 8 17 23 26 35 32 39 38 36 39 40 38 37 35 35 35 38 37 38 39 37 29 26 24 16 17 14 8 7
5 7 6 3 2 4 1 9 7 7 3 1 6 8 5 5 11 23 38 30 36 38 37 34 38 39 36 37 38 37 37 36 36 32 24 20 20 18 19 18 15 10 9 9
5 6 2 5 4 3 4 9 7 2 1 3 4 4 6 8 7 9 23 31 33 36 37 38 42 40 38 36 35 35 36 34 28 25 22 23 25 24 21 16 13 12 10 8
5 7 4 1 4 7 5 7 3 4 5 4 3 3 3 11 11 11 16 23 28 33 36 39 42 39 36 35 34 32 28 29 27 24 26 26 24 20 17 16 14 12 10 7
5 4 10 3 5 1 5 3 5 3 3 3 2 1 2 10 13 4 9 20 28 33 36 37 35 33 33 31 30 28 27 27 30 29 29 25 23 20 18 15 15 12 10 8
4 5 6 9 5 3 4 5 4 3 4 1 3 1 7 13 7 9 10 16 24 29 32 34 32 30 29 25 25 24 29 28 29 27 27 26 23 20 18 17 15 14 10 9
8 3 7 9 4 2 5 3 5 6 2 0 1 4 9 10 7 9 13 17 23 27 28 30 28 27 27 27 29 32 28 25 23 24 24 24 21 19 18 16 15 12 10 8
8 4 4 7 13 5 7 6 4 4 2 2 3 4 8 8 5 7 12 17 21 23 24 26 26 25 27 31 31 28 25 24 24 26 23 21 20 20 18 15 13 10 8 6
7 5 5 13 15 6 5 7 5 4 4 4 1 5 8 9 5 5 10 16 20 21 22 24 27 32 36 34 30 27 24 23 24 24 22 21 21 18 15 13 10 8 7 4
7 4 8 5 7 9 6 7 4 4 4 1 2 3 3 5 4 7 11 13 14 18 21 24 28 33 32 30 28 25 22 22 22 21 21 20 18 16 14 11 9 7 5 3
5 5 4 4 7 13 4 5 5 3 3 3 3 1 2 4 3 4 13 17 18 19 21 24 28 30 29 26 23 22 21 21 23 22 20 18 16 14 12 9 7 4 3 2
5 5 2 4 7 4 3 2 4 3 4 6 3 2 2 2 7 4 6 11 14 14 17 20 25 27 27 24 22 21 21 23 23 21 18 16 14 12 9 7 4 3 3 3
11 3 4 2 3 6 4 6 5 5 5 6 5 6 6 6 8 13 6 4 7 11 14 18 23 27 27 25 22 21 19 20 21 18 15 13 11 9 7 4 2 3 4 4
5 5 2 3 2 2 2 6 10 4 5 7 11 6 4 7 3 3 12 5 7 10 11 13 18 25 28 25 21 19 17 18 18 14 12 11 10 9 7 3 3 5 6 6
1 1 3 2 3 6 5 11 9 4 4 13 13 10 7 3 4 6 9 6 6 8 12 12 12 16 23 22 20 17 16 14 15 14 14 12 10 10 7 3 3 7 7 7
4 3 3 2 1 4 9 7 4 3 3 8 11 13 12 8 5 5 6 6 7 8 11 12 14 15 17 21 20 19 19 16 19 15 13 11 10 10 5 6 7 8 8 8
3 5 2 6 4 3 7 3 9 7 4 7 10 12 11 11 10 7 6 7 9 9 10 11 11 13 15 20 22 20 18 17 18 18 16 12 9 8 10 6 10 8 8 9
4 4 3 3 2 4 4 16 9 6 5 2 6 9 9 9 8 6 6 7 8 9 9 9 10 10 12 16 18 16 15 15 17 17 17 13 12 8 8 11 9 8 10 12
4 3 3 5 11 15 1 8 10 6 5 5 5 4 7 7 5 6 6 7 8 9 9 9 8 8 8 11 14 14 13 12 11 12 13 8 5 8 11 9 8 10 13 14
8 6 5 5 1 2 0 5 8 9 8 5 2 1 5 7 6 5 7 9 10 10 9 7 9 8 8 11 14 14 12 8 9 10 6 5 7 10 8 8 9 11 14 16
Wind_Direction
330 329 231 231 245 283 272 273 269 265 338 350 258 254 224 211 203 220 217 204 204 214 215 207 202 202 202 201 196 192 194 194 195 196 197 202 209 212 215 215 223 227 246 238
337 250 238 230 251 274 305 282 269 278 262 253 293 288 318 240 212 209 219 216 209 204 209 207 200 202 204 202 200 199 202 202 203 205 207 212 216 217 220 219 223 225 234 239
253 248 3 232 233 242 259 281 279 266 254 222 260 278 273 257 213 210 214 218 212 203 202 205 200 201 203 203 201 202 205 206 207 212 211 216 215 217 217 213 223 229 231 230
269 253 226 239 248 222 255 276 263 256 254 251 183 271 243 227 219 209 206 200 203 204 206 208 201 201 203 205 204 207 208 210 211 212 216 223 226 221 215 218 216 212 208 209
264 280 255 221 232 206 253 228 265 287 249 233 199 237 218 169 229 212 209 210 210 216 213 207 202 202 203 206 207 208 210 213 215 221 219 225 227 221 221 207 200 193 176 195
260 258 261 209 202 198 271 256 235 254 231 232 221 211 217 209 209 224 211 211 205 202 205 205 201 200 202 206 210 211 212 215 218 218 223 223 226 220 204 189 174 172 176 193
289 230 245 174 263 198 199 227 198 231 208 228 248 197 243 206 213 214 199 196 187 197 194 197 194 195 199 205 207 210 213 216 220 222 220 219 208 194 181 170 163 169 174 191
319 330 174 142 223 307 176 240 230 239 232 260 259 224 210 292 264 227 200 176 173 187 192 189 198 196 199 203 206 210 212 213 213 212 208 203 217 188 166 163 159 152 163 147
296 275 279 178 140 157 359 219 229 235 275 235 229 256 250 338 309 140 150 152 160 177 188 190 193 198 196 201 204 207 207 204 197 193 203 171 159 159 160 154 150 141 145 142
270 275 237 109 191 220 198 305 198 206 181 236 254 277 357 316 328 158 154 158 155 172 179 184 190 190 194 195 200 200 198 192 178 171 160 150 149 154 151 143 146 153 144 141
288 287 288 330 216 159 218 258 256 226 243 142 237 210 165 291 293 251 148 145 148 162 176 181 186 183 188 187 189 182 175 168 153 153 152 148 151 158 143 153 158 148 148 142
301 287 287 242 188 226 200 269 231 255 197 302 242 358 12 315 280 127 108 127 147 159 169 174 175 180 179 177 168 160 157 153 150 152 154 148 151 155 162 164 157 153 146 143
349 316 306 339 5 274 287 250 283 310 265 274 346 12 352 334 53 100 118 128 139 154 160 164 164 170 168 165 156 156 154 152 156 158 158 144 154 161 166 162 152 144 145 133
310 273 255 309 308 304 288 300 311 290 349 312 47 314 328 4 50 93 107 127 135 148 154 156 155 158 156 153 154 152 157 160 166 164 154 152 160 165 164 155 148 143 132 134
352 288 314 303 296 304 284 283 289 327 0 37 31 11 338 358 37 74 116 131 137 144 152 156 158 161 160 159 159 161 164 164 163 159 156 160 166 163 157 151 146 144 147 144
337 285 311 276 304 327 306 342 350 343 309 69 44 32 283 50 50 129 142 140 140 148 155 163 166 166 163 163 163 163 163 162 161 160 163 170 166 161 158 155 153 154 148 140
301 330 316 293 316 309 348 340 343 325 297 339 20 116 249 106 124 233 165 168 166 166 170 172 172 171 169 168 166 167 167 167 167 171 172 172 165 163 161 156 152 150 164 209
295 306 278 292 321 30 260 289 243 264 20 351 4 22 59 46 98 143 211 173 167 179 184 189 183 182 179 176 176 175 173 173 172 173 175 171 168 166 160 156 157 183 227 273
224 277 315 356 296 283 346 357 7 21 11 358 331 313 356 4 103 63 65 198 186 169 177 188 192 186 186 185 183 181 176 178 178 179 175 172 170 165 160 165 206 240 255 281
198 247 276 357 336 286 286 320 349 339 18 0 7 350 311 326 65 336 24 105 149 165 161 174 184 189 192 190 189 186 184 182 182 182 176 178 180 179 179 212 235 266 280 301
237 197 203 239 267 286 288 313 338 59 299 341 4 20 21 58 65 6 28 69 121 135 148 150 167 184 190 192 195 193 193 192 182 186 187 186 188 193 199 267 301 274 289 299
190 158 217 122 286 295 342 342 67 286 316 350 13 29 39 46 26 7 39 83 124 143 146 145 156 167 182 194 198 203 204 184 187 192 193 190 200 204 234 323 272 277 291 299
258 196 204 187 223 266 316 305 318 313 329 29 9 14 28 26 32 38 64 89 116 127 133 140 150 162 175 192 199 204 200 191 187 186 189 199 204 212 276 280 275 280 297 318
249 191 215 8 280 265 24 321 314 315 299 22 17 358 360 18 27 44 78 104 117 126 130 139 149 154 176 186 192 197 201 197 210 211 200 194 211 241 262 272 272 301 315 309
223 122 188 262 278 290 43 13 354 1 284 295 317 339 357 5 37 78 95 112 125 134 137 135 137 135 157 172 178 184 190 199 210 192 192 186 221 246 263 269 300 306 302 308
196 191 177 224 245 207 220 359 11 24 22 10 330 353 356 8 30 81 112 124 126 128 130 136 136 139 149 162 170 173 177 184 175 176 189 196 235 254 267 285 293 300 310 320
Height
1513 1516 1514 1510 1507 1507 1503 1497 1496 1494 1493 1493 1480 1476 1477 1480 1482 1483 1486 1486 1487 1492 1497 1501 1507 1515 1520 1524 1527 1531 1535 1539 1543 1546 1549 1553 1555 1558 1560 1562 1564 1566 1567 1568
1516 1513 1502 1502 1503 1505 1506 1501 1491 1492 1494 1498 1491 1481 1481 1473 1470 1473 1480 1483 1483 1488 1492 1497 1501 1509 1515 1520 1525 1529 1531 1536 1540 1544 1548 1551 1554 1555 1557 1559 1561 1561 1563 1564
1513 1501 1500 1502 1500 1501 1499 1500 1497 1496 1492 1490 1490 1481 1475 1469 1465 1466 1470 1475 1480 1481 1484 1491 1496 1503 1511 1515 1519 1525 1529 1533 1537 1541 1544 1547 1549 1552 1553 1554 1557 1558 1559 1559
1508 1497 1496 1497 1500 1500 1497 1492 1492 1491 1489 1482 1483 1467 1462 1458 1455 1460 1464 1468 1472 1473 1483 1487 1491 1497 1505 1511 1515 1521 1525 1529 1533 1536 1539 1542 1544 1546 1548 1550 1552 1554 1555 1557
1502 1495 1493 1493 1490 1491 1488 1487 1492 1492 1487 1483 1478 1478 1450 1448 1449 1449 1454 1459 1462 1467 1473 1480 1486 1493 1501 1508 1511 1517 1521 1525 1528 1532 1535 1537 1539 1541 1543 1546 1548 1550 1553 1555
1497 1492 1490 1483 1482 1486 1487 1488 1486 1488 1485 1471 1463 1466 1441 1438 1436 1444 1448 1452 1458 1463 1467 1476 1483 1490 1497 1503 1507 1512 1516 1520 1522 1526 1528 1531 1533 1535 1537 1541 1545 1548 1550 1554
1495 1485 1479 1480 1482 1482 1483 1485 1475 1474 1461 1463 1447 1451 1422 1418 1421 1424 1432 1444 1450 1454 1462 1469 1477 1484 1489 1497 1502 1507 1511 1514 1518 1520 1522 1524 1526 1531 1533 1539 1543 1546 1549 1553
1498 1496 1477 1480 1480 1477 1477 1478 1465 1459 1452 1451 1448 1431 1409 1423 1419 1413 1421 1432 1439 1450 1456 1459 1472 1479 1484 1491 1497 1501 1505 1509 1512 1515 1518 1519 1523 1533 1535 1540 1543 1545 1551 1553
1499 1489 1472 1473 1476 1479 1472 1470 1462 1465 1464 1466 1440 1429 1412 1414 1413 1406 1418 1427 1434 1442 1449 1457 1466 1476 1479 1487 1492 1496 1499 1502 1506 1509 1515 1519 1524 1530 1537 1538 1542 1546 1551 1553
1500 1484 1472 1472 1476 1474 1473 1470 1451 1454 1467 1455 1431 1424 1419 1433 1427 1415 1420 1426 1431 1439 1446 1455 1464 1469 1476 1481 1487 1492 1494 1498 1500 1508 1516 1519 1527 1533 1535 1539 1545 1546 1548 1553
1503 1492 1475 1472 1465 1464 1468 1459 1452 1446 1449 1444 1434 1426 1439 1436 1431 1423 1423 1428 1430 1438 1445 1452 1463 1464 1473 1476 1484 1489 1497 1498 1501 1506 1513 1517 1525 1534 1535 1539 1544 1545 1547 1550
1502 1494 1478 1469 1464 1462 1463 1457 1451 1438 1438 1434 1431 1423 1432 1431 1424 1424 1427 1430 1434 1440 1447 1451 1457 1466 1470 1478 1483 1490 1496 1502 1505 1510 1514 1515 1525 1532 1536 1539 1542 1544 1546 1548
1503 1496 1486 1466 1469 1462 1455 1450 1446 1442 1435 1435 1422 1426 1437 1432 1427 1428 1430 1434 1438 1442 1446 1452 1455 1465 1471 1478 1482 1493 1502 1505 1511 1514 1520 1518 1526 1532 1537 1541 1541 1543 1546 1548
1503 1490 1488 1479 1474 1472 1460 1451 1450 1443 1437 1436 1436 1440 1440 1435 1434 1434 1436 1438 1442 1442 1448 1452 1459 1467 1476 1482 1489 1492 1501 1505 1512 1517 1518 1521 1527 1534 1537 1540 1542 1543 1544 1548
1505 1495 1485 1478 1477 1471 1464 1456 1450 1446 1442 1439 1443 1442 1443 1438 1437 1437 1438 1441 1444 1447 1452 1456 1462 1469 1476 1481 1487 1495 1502 1508 1513 1515 1518 1525 1529 1533 1537 1539 1541 1543 1544 1547
1507 1494 1490 1482 1471 1470 1465 1456 1454 1453 1451 1447 1447 1448 1448 1445 1441 1444 1442 1445 1449 1452 1456 1461 1466 1472 1478 1485 1490 1496 1503 1508 1513 1516 1521 1527 1530 1533 1536 1538 1540 1542 1544 1545
1510 1506 1496 1482 1478 1472 1471 1462 1460 1459 1452 1452 1448 1449 1449 1447 1449 1447 1448 1450 1453 1455 1461 1465 1470 1475 1481 1487 1493 1498 1503 1508 1512 1518 1523 1527 1531 1533 1536 1537 1539 1541 1543 1544
1512 1509 1500 1491 1482 1476 1462 1462 1460 1458 1458 1454 1449 1450 1448 1449 1451 1452 1451 1451 1452 1456 1460 1466 1471 1478 1484 1488 1495 1500 1504 1509 1514 1519 1524 1527 1531 1533 1535 1537 1539 1540 1542 1544
1511 1508 1500 1502 1500 1477 1459 1464 1463 1462 1460 1459 1456 1450 1447 1448 1450 1454 1453 1454 1455 1457 1462 1467 1473 1479 1485 1491 1496 1500 1505 1510 1516 1520 1523 1527 1530 1532 1535 1537 1539 1541 1542 1543
1508 1508 1506 1514 1504 1492 1469 1466 1463 1460 1464 1461 1458 1455 1453 1453 1454 1457 1456 1456 1458 1460 1462 1467 1473 1479 1486 1490 1495 1500 1504 1510 1515 1519 1522 1525 1529 1532 1534 1536 1538 1539 1540 1540
1506 1511 1512 1509 1503 1489 1473 1467 1466 1473 1476 1467 1465 1463 1460 1460 1460 1460 1457 1456 1458 1461 1463 1466 1473 1480 1484 1489 1494 1500 1505 1509 1516 1519 1523 1524 1527 1531 1534 1536 1537 1539 1539 1539
1510 1514 1519 1514 1508 1494 1474 1471 1474 1479 1474 1470 1469 1465 1463 1463 1462 1462 1460 1460 1462 1465 1467 1468 1472 1477 1482 1488 1492 1498 1504 1508 1512 1516 1521 1522 1526 1529 1531 1533 1536 1536 1537 1537
1509 1498 1502 1499 1492 1479 1478 1478 1477 1476 1474 1470 1470 1468 1466 1466 1464 1464 1463 1463 1465 1467 1469 1471 1474 1478 1482 1488 1492 1496 1501 1506 1509 1513 1518 1522 1525 1528 1531 1532 1533 1533 1534 1532
1497 1494 1496 1492 1482 1478 1476 1476 1474 1474 1474 1473 1473 1473 1472 1469 1467 1465 1465 1467 1467 1470 1472 1475 1477 1478 1483 1486 1491 1497 1501 1503 1507 1511 1516 1521 1525 1527 1529 1530 1530 1529 1529 1529
1494 1494 1496 1492 1480 1478 1478 1476 1474 1473 1473 1471 1472 1473 1473 1472 1469 1467 1467 1468 1470 1472 1476 1478 1479 1480 1484 1487 1492 1496 1501 1503 1507 1511 1516 1519 1523 1526 1526 1527 1526 1525 1527 1527
1484 1484 1487 1487 1478 1480 1479 1478 1475 1472 1472 1471 1470 1471 1472 1471 1470 1469 1469 1471 1472 1475 1478 1481 1483 1484 1487 1491 1495 1498 1500 1504 1509 1512 1516 1519 1522 1523 1524 1523 1523 1524 1524 1523